Overview Statistics Trail Chart Weather Telemetry Raw packets
 

This is the latest recevied weather packets stored in our database for station/object KI5NXU. If no packets are shown the sender has not sent any weather packets the latest 10 day(s).

<< 1 2 3 4 5 6 7 >>
Time Temp. Humidity Pressure Rain* Wind** Luminosity Snow
1788388634 37.78° C 37% 1011 hPa 0 mm - 120 W/m² -
1788388334 37.78° C 37% 1011 hPa 0 mm - 108 W/m² -
1788388033 39.44° C 35% 1011.2 hPa 0 mm - 367 W/m² -
1788387733 39.44° C 35% 1011.3 hPa 0 mm - 376 W/m² -
1788387428 40° C 35% 1011.1 hPa 0 mm - 380 W/m² -
1788387126 40° C 34% 1011.2 hPa 0 mm - 437 W/m² -
1788386822 39.44° C 34% 1011.1 hPa 0 mm - 476 W/m² -
1788386517 40° C 34% 1011.3 hPa 0 mm - 478 W/m² -
1788386213 39.44° C 34% 1011 hPa 0 mm - 464 W/m² -
1788385908 39.44° C 35% 1011.3 hPa 0 mm - 464 W/m² -
1788385603 39.44° C 35% 1011.2 hPa 0 mm - 448 W/m² -
1788385302 38.89° C 36% 1011.1 hPa 0 mm - 461 W/m² -
1788384998 37.78° C 37% 1011.4 hPa 0 mm - 225 W/m² -
1788384697 38.33° C 37% 1011.6 hPa 0 mm - 108 W/m² -
1788384392 38.33° C 36% 1011.3 hPa 0 mm - 367 W/m² -
1788384089 38.89° C 36% 1011.5 hPa 0 mm - 561 W/m² -
1788383785 38.89° C 35% 1011.5 hPa 0 mm - 602 W/m² -
1788383480 38.89° C 35% 1011.6 hPa 0 mm - 626 W/m² -
1788383179 38.89° C 36% 1011.7 hPa 0 mm - 623 W/m² -
1788382874 38.33° C 38% 1011.9 hPa 0 mm - 632 W/m² -
1788382573 37.22° C 38% 1012 hPa 0 mm - 642 W/m² -
1788382268 37.78° C 39% 1012 hPa 0 mm - 649 W/m² -
1788381968 38.89° C 37% 1011.9 hPa 0 mm - 643 W/m² -
1788381663 38.33° C 37% 1012.2 hPa 0 mm - 637 W/m² -
1788381358 36.67° C 39% 1012.1 hPa 0 mm - 649 W/m² -

* Rain latest hour (hover to see other rain measurements)
** Current wind speed in m/s (hover to see current wind gust speed)